{"data":{"norad_id":54219,"intl_designator":"2022-144A","name":"LDPE-2","alt_names":[],"object_type":"PAYLOAD","status":"ACTIVE","operator":null,"country":"US","launch_date":"2022-11-01","launch_site_code":"AFETR","launch_vehicle":null,"mission":null,"orbit_class":"UNKNOWN","rcs_meters":null,"size_class":null,"mass_kg":null,"dimensions":null,"purposes":["comms"],"wikipedia_slug":null,"has_3d_model":false,"image_url":null,"decayed_at":null,"tle_current":{"epoch":"2026-05-25T01:10:56.839008Z","epoch_age_seconds":81379,"freshness":"FRESH","line1":"1 54219U 22144A   26145.04926897  .00000086  00000+0  00000+0 0  9999","line2":"2 54219   5.5598  63.8412 0001301  93.3740 284.3323  1.00523750 11617","mean_motion":1.0052375,"eccentricity":0.0001301,"inclination_deg":5.5598,"raan_deg":63.8412,"arg_perigee_deg":93.374,"mean_anomaly_deg":284.3323,"bstar":0,"rev_number":1161,"period_min":1432.4972954153,"perigee_km":35710.631145019,"apogee_km":35721.584067465,"semimajor_km":42094.244606242,"source":"CELESTRAK","updated_at":"2026-05-25T13:38:14.111572Z"}}}